Flag for Ireland Weather past 2 weeks in Waterford, Ireland

Now
57 °F

Scattered clouds.


Feels Like: 53 °F
Forecast: 46 / 56 °F
Wind: 20 mph from Northwest

Location: Cork Airport

Current Time: May 27, 2015 at 7:58:56 PM

Latest Report: May 27, 2015 at 7:30 PM


Visibility: N/A

Pressure: 30.01 "Hg

Humidity: 77%

Dew point: 50 °F

Location of WaterfordLocation

Historic Weather in Waterford — Graph

°F

Waterford temperature yesterday

Maximum temperature yesterday: 63 °F (at 2:00 PM)
Minimum temperature yesterday: 46 °F (at 11:00 PM)
Average temperature yesterday: 54 °F

Past Weeks' High & Low Weather Summary

 TemperatureHumidityPressure
High64 °F (May 22, 2:30 PM)100% (May 14, 1:30 AM)30.39 "Hg (May 14, 1:30 AM)
Low41 °F (May 19, 5:30 AM)48% (May 16, 5:00 PM)29.56 "Hg (May 14, 3:30 AM)
Average51 °F83%30.14 "Hg
* Reported May 12 6:00 PM — May 27 6:30 PM, Waterford, Weather by CustomWeather, © 2015

Note: Actual official high and low records may vary slightly from our data, if they occured in-between our weather recording intervals... More about our weather records

Advertising

Waterford weather history for previous 24 hours

 ConditionsComfort  
Time TempWeatherWind HumidityBarometerVisibility
6:30 PM
Wed, May 27
57 °FPartly sunny.18 mph82%30.04 "HgN/A
6:00 PM59 °FPartly sunny.18 mph82%30.04 "HgN/A
5:30 PM59 °FPartly sunny.13 mph82%30.04 "HgN/A
5:00 PM57 °FPartly sunny.13 mph88%30.07 "HgN/A
4:30 PM55 °FPartly sunny.15 mph94%30.07 "HgN/A
4:00 PM54 °FPartly sunny.15 mph94%30.09 "HgN/A
3:30 PM55 °FLight rain. Partly sunny.17 mph88%30.09 "HgN/A
3:00 PM52 °FPartly sunny.17 mph94%30.12 "HgN/A
2:30 PM50 °FPartly sunny.16 mph100%30.12 "HgN/A
2:00 PM50 °FBroken clouds.16 mph88%30.12 "HgN/A
1:30 PM52 °FLight rain. Partly sunny.16 mph88%30.12 "HgN/A
1:00 PM52 °FPartly sunny.14 mph82%30.15 "HgN/A
12:30 PM54 °FPartly sunny.14 mph72%30.15 "HgN/A
12:00 PM54 °FBroken clouds.12 mph77%30.15 "HgN/A
11:30 AM54 °FPartly sunny.13 mph82%30.18 "HgN/A
11:00 AM52 °FBroken clouds.13 mph88%30.18 "HgN/A
10:30 AM50 °FBroken clouds.13 mph88%30.21 "HgN/A
10:00 AM48 °FPartly sunny.9 mph87%30.24 "HgN/A
9:30 AM48 °FPartly sunny.7 mph87%30.24 "HgN/A
9:00 AM48 °FPartly sunny.6 mph87%30.27 "HgN/A
8:30 AM48 °FPassing clouds.3 mph82%30.27 "HgN/A
8:00 AM46 °FPassing clouds.2 mph82%30.27 "HgN/A
7:30 AM45 °FPassing clouds.5 mph87%30.30 "HgN/A
7:00 AM45 °FPassing clouds.5 mph87%30.30 "HgN/A
6:30 AM43 °FSunny.6 mph87%30.30 "Hg10 mi
6:00 AM43 °FClear.7 mph87%30.30 "Hg10 mi
5:30 AM43 °FClear.8 mph87%30.30 "Hg10 mi
5:00 AM43 °FClear.8 mph87%30.33 "Hg10 mi
4:30 AM43 °FClear.8 mph93%30.33 "Hg10 mi
4:00 AM43 °FClear.9 mph87%30.33 "Hg10 mi
3:30 AM43 °FClear.9 mph87%30.36 "Hg10 mi
3:00 AM43 °FClear.10 mph87%30.36 "Hg10 mi
2:30 AM43 °FPassing clouds.12 mph93%30.36 "HgN/A
2:00 AM45 °FPassing clouds.13 mph87%30.36 "HgN/A
1:30 AM45 °FPassing clouds.14 mph87%30.39 "HgN/A
1:00 AM45 °FPassing clouds.15 mph87%30.39 "HgN/A
12:30 AM45 °FPassing clouds.15 mph87%30.39 "HgN/A
12:00 AM45 °FPassing clouds.17 mph87%30.39 "HgN/A
11:30 PM
Tue, May 26
46 °FPassing clouds.16 mph82%30.39 "HgN/A
11:00 PM46 °FPassing clouds.15 mph87%30.39 "HgN/A
10:30 PM48 °FPassing clouds.16 mph82%30.39 "HgN/A
10:00 PM50 °FPassing clouds.20 mph76%30.39 "HgN/A
9:30 PM52 °FSunny.16 mph72%30.39 "Hg10 mi
9:00 PM52 °FSunny.17 mph72%30.39 "Hg10 mi
8:30 PM55 °FSunny.15 mph67%30.39 "Hg10 mi
8:00 PM57 °FSunny.14 mph63%30.39 "Hg10 mi
7:30 PM57 °FPassing clouds.10 mph63%30.39 "HgN/A
7:00 PM59 °FPassing clouds.16 mph63%30.39 "HgN/A
Weather by CustomWeather, © 2015

See weather overviewHow to use our weather pages